Flag for India Weather past 2 weeks in Wardha, Maharashtra, India

Now
77 °F

Partly cloudy.


Feels Like: 78 °F
Forecast: 74 / 85 °F
Wind: 5 mph from South

Location: Nagpur Sonegaon

Current Time: Sep 3, 2014 at 12:33:15 AM

Latest Report: Sep 2, 2014 at 11:10 PM


Visibility: 3 mi

Pressure: 29.71 "Hg

Humidity: 94%

Dew point: 75 °F

Location of WardhaLocation

Historic Weather in Wardha — Graph

°F

Wardha temperature yesterday

Maximum temperature yesterday: 84 °F (at 2:10 PM)
Minimum temperature yesterday: 73 °F (at 3:10 AM)
Average temperature yesterday: 78 °F

Past Weeks' High & Low Weather Summary

 TemperatureHumidityPressure
High99 °F (Aug 19, 1:40 PM)100% (Aug 21, 4:10 PM)29.89 "Hg (Aug 21, 4:10 PM)
Low72 °F (Aug 23, 12:10 AM)38% (Aug 21, 10:40 AM)29.42 "Hg (Aug 30, 3:10 PM)
Average81 °F85%29.69 "Hg
* Reported Aug 18 11:10 PM — Sep 2 11:10 PM, Wardha, Weather by CustomWeather, © 2014

Note: Actual official high and low records may vary slightly from our data, if they occured in-between our weather recording intervals... More about our weather records

Advertising

Wardha weather history for previous 24 hours

 ConditionsComfort  
Time TempWeatherWind HumidityBarometerVisibility
11:10 PM
Sep 2
77 °FPartly cloudy.5 mph94%29.71 "Hg3 mi
10:10 PM77 °FPassing clouds.6 mph94%29.71 "Hg3 mi
9:40 PM77 °FPassing clouds.5 mph94%29.68 "Hg3 mi
9:10 PM77 °FPassing clouds.3 mph94%29.68 "Hg3 mi
8:40 PM79 °FPassing clouds.5 mph89%29.68 "Hg3 mi
8:10 PM77 °FPassing clouds.5 mph94%29.65 "Hg3 mi
7:40 PM79 °FPassing clouds.6 mph89%29.65 "Hg3 mi
6:40 PM79 °FPartly sunny.6 mph94%29.62 "Hg3 mi
6:10 PM81 °FPartly sunny.7 mph89%29.59 "Hg3 mi
5:10 PM82 °FBroken clouds.9 mph84%29.56 "Hg3 mi
4:40 PM82 °FBroken clouds.9 mph89%29.56 "Hg3 mi
4:10 PM82 °FBroken clouds.9 mph79%29.56 "Hg3 mi
3:40 PM81 °FBroken clouds.7 mph94%29.56 "Hg3 mi
2:40 PM82 °FBroken clouds.9 mph89%29.59 "Hg3 mi
2:10 PM84 °FBroken clouds.9 mph84%29.59 "Hg3 mi
1:10 PM82 °FMore clouds than sun.9 mph84%29.62 "Hg3 mi
12:10 PM79 °FCloudy.9 mph94%29.62 "Hg3 mi
10:40 AM82 °FBroken clouds.9 mph84%29.65 "Hg3 mi
10:10 AM79 °FBroken clouds.9 mph94%29.62 "Hg3 mi
9:40 AM77 °FBroken clouds.9 mph100%29.65 "Hg3 mi
7:40 AM73 °FBroken clouds.7 mph100%29.62 "Hg2 mi
7:10 AM73 °FBroken clouds.7 mph100%29.59 "Hg2 mi
6:40 AM73 °FDrizzle. Broken clouds.8 mph100%29.59 "Hg2 mi
6:10 AM73 °FHaze.6 mph100%29.56 "Hg2 mi
5:10 AM73 °FPartly cloudy.8 mph100%29.56 "Hg2 mi
4:40 AM73 °FPartly cloudy.7 mph100%29.53 "Hg2 mi
3:40 AM73 °FPartly cloudy.9 mph100%29.53 "Hg2 mi
3:10 AM73 °FPartly cloudy.9 mph100%29.53 "Hg2 mi
Weather by CustomWeather, © 2014

See weather overviewHow to use our weather pages